Showing default

HULIANWANG DIGUI-156, 68130

Orbit data source: Space-Track

HULIANWANG DIGUI-156, 68130 is a payload satellite owned by Zhongguo Xingwang (CN) in LEO that was launched on Thu, 12 Mar 2026 UTC via a CHANG ZHENG 8A launch vehicle from the Wenchang Satellite Launch Center (WSC). Payload-class satellites include a variety of spacecraft equipped with specific instruments for various scientific and technological missions. These include communications satellites like Starlink; space stations such as the ISS; scientific satellites like the Hubble; Earth observation satellites from companies like Planet Labs, Umbra, and HawkEye 360; GPS; miniature CubeSats for education and research; and military/defense satellites.

Loading next visibility...
Identifier
68130, 2026-047B
Orbit
LEO
Country
Flag of CNCN / PRC
Related business
Manufacturer
CAST?
Mission
Operational spacecraft
Bus & Motor
XINGWANG C, Unknown motor
Mass
~700 kg wet, ~700 kg dry
Launch date (UTC)
2026-03-12 (1 month ago)
Launch vehicle
CHANG ZHENG 8A
Launch site
Wenchang Satellite Launch Center (WSC)
Object type
Payload
Rocket body
Debris
Shape & HBR
Unknown
Radar Cross Section
RCS unknown

Expand to show TLE details & history
Last TLE update: 21 hours ago

TLE from 21 hours ago
0 HULIANWANG DIGUI-156
1 68130U 26047B   26104.71012363 -.00000113  00000-0  28833-4 0  9997
2 68130  50.0063 286.6632 0000675 308.1579  51.9249 13.66126772  4575
Epoch: 2026-04-14T17:02Z
TLE epoch observation values (Epoch: 2026-04-14T17:02:34.681Z)
Latitude
0.00003°
Longitude
-171.86375°
Altitude
1,013.717 km
Speed
7.346 km/s
True Right ascension
19h 06m 39s
True Declination
0° 00' 00"
Sunlit
Object was in daylight at epoch
Visualization orbit readout
Latitude
Unknown
Longitude
Unknown
Altitude
Unknown
Speed
Unknown
Apparent Right ascension
Unknown
Apparent Declination
Unknown
Sunlit
N/A
Visualization observer readout
Local Sidereal Time
20:46:29
Azimuth
Unknown
Elevation
Unknown
Doppler factor
Unknown
Orbital elements
Apogee altitude
1,014.725 km
Perigee altitude
1,013.727 km
Semi-major axis
7,392.363 km
Eccentricity
0.00007
Inclination
50.0063°
RAAN
286.6632°
Arg. of periapsis
308.1579°
True anomaly
51.93099°
Mean anomaly
51.9249°
Eccentric anomaly
51.92794°
Mean motion
3.41482 °/min
Orbital period
105.42 mins
BSTAR
0.000028833
Loading maneuver chart data...
Computing Atmospheric mass density...
Loading historical data...
Loading historical data...
Loading historical data...
Loading historical data...
Loading historical data...
Loading historical data...
Loading historical data...

Documentation

Showing up to 5 results
|